Marion, OH

2:29 PM EDT on September 25, 2016 (GMT -0400)
Marion Municipal

Weather History for KMNN - December, 2012

Change the Weather History Date:

Saturday, December 22, 2012

  Actual Average (KDLZ) Record (KDLZ)
Temperature  
Mean Temperature 25 °F -  
Max Temperature 32 °F 36 °F 66 °F (1967)
Min Temperature 18 °F 20 °F -24 °F (1989)
Degree Days  
Heating Degree Days 40    
Moisture  
Dew Point 21 °F    
Average Humidity 78    
Maximum Humidity 89    
Minimum Humidity 69    
Precipitation  
Precipitation 0.00 in - - ()
Sea Level Pressure  
Sea Level Pressure 30.10 in    
Wind  
Wind Speed 14 mph (West)    
Max Wind Speed 21 mph    
Max Gust Speed 31 mph    
Visibility 10 miles    
Events      
Averages and records for this station are not official NWS values.
T = Trace of Precipitation, MM = Missing Value Source: NWS Daily Summary

Daily Weather History Graph

Daily Weather History Graph

Search for Another Location

Airport or City:

Trip Planner

Search our weather history database for the weather conditions in past years. The results will help you decide how hot, cold, wet, or windy it might be!

Date:

Astronomy

Dec. 22, 2012 Rise Set
Actual Time 7:53 AM EST 5:09 PM EST
Civil Twilight 7:22 AM EST 5:40 PM EST
Nautical Twilight 6:47 AM EST 6:14 PM EST
Astronomical Twilight 6:14 AM EST 6:47 PM EST
Moon 1:26 PM EST (12/22) 2:36 AM EST (12/22)
Length of Visible Light 10h 17m
Length of Day
9h 15m
Waxing Gibbous, 73% of the Moon is Illuminated
Dec 22
Waxing Gibbous
Dec 28
Full
Jan 4
Last Quarter
Jan 11
New
Jan 18
First Quarter

Hourly Weather History & Observations

Time (EST) Temp. Windchill Dew Point Humidity Pressure Visibility Wind Dir Wind Speed Gust Speed Precip Events Conditions
12:53 AM 32.0 °F 19.8 °F 24.1 °F 73% 29.94 in 10.0 mi NW 20.7 mph 31.1 mph N/A   Overcast
1:53 AM 30.9 °F 18.7 °F 23.0 °F 72% 29.98 in 10.0 mi NW 19.6 mph 27.6 mph N/A   Overcast
2:53 AM 30.9 °F 20.2 °F 21.9 °F 69% 30.01 in 10.0 mi NW 15.0 mph 23.0 mph N/A   Overcast
4:53 AM 30.9 °F 21.7 °F 23.0 °F 72% 30.04 in 10.0 mi WNW 11.5 mph - N/A   Overcast
5:53 AM 30.0 °F 19.1 °F 21.0 °F 69% 30.06 in 10.0 mi NW 15.0 mph 25.3 mph N/A   Overcast
6:38 AM 30.2 °F 21.3 °F 23.0 °F 75% 30.04 in 10.0 mi WNW 10.4 mph - N/A   Overcast
6:53 AM 30.0 °F 21.1 °F 23.0 °F 75% 30.08 in 10.0 mi NW 10.4 mph - N/A   Overcast
7:53 AM 28.9 °F 18.2 °F 25.0 °F 85% 30.10 in 10.0 mi West 13.8 mph - N/A   Overcast
8:53 AM 28.9 °F 18.6 °F 21.9 °F 75% 30.12 in 10.0 mi NW 12.7 mph 20.7 mph N/A   Overcast
9:53 AM 28.9 °F 18.2 °F 23.0 °F 78% 30.14 in 10.0 mi WNW 13.8 mph 18.4 mph N/A   Overcast
10:53 AM 28.9 °F 16.9 °F 23.0 °F 78% 30.16 in 10.0 mi WNW 17.3 mph 23.0 mph N/A   Overcast
11:53 AM 28.9 °F 16.9 °F 23.0 °F 78% 30.14 in 10.0 mi West 17.3 mph 23.0 mph N/A   Overcast
12:53 PM 30.0 °F 20.0 °F 21.9 °F 72% 30.13 in 10.0 mi West 12.7 mph 21.9 mph N/A   Overcast
1:53 PM 28.9 °F 18.2 °F 23.0 °F 78% 30.13 in 10.0 mi West 13.8 mph 21.9 mph N/A   Overcast
2:53 PM 28.9 °F 19.2 °F 21.9 °F 75% 30.13 in 10.0 mi West 11.5 mph - N/A   Overcast
3:53 PM 28.0 °F 18.6 °F 21.9 °F 78% 30.14 in 10.0 mi West 10.4 mph - N/A   Overcast
4:53 PM 26.1 °F 16.8 °F 19.9 °F 78% 30.14 in 10.0 mi West 9.2 mph - N/A   Overcast
5:40 PM 24.8 °F 16.1 °F 19.4 °F 80% 30.10 in 10.0 mi WSW 8.1 mph - N/A   Partly Cloudy
5:53 PM 25.0 °F 17.1 °F 19.0 °F 78% 30.14 in 10.0 mi WSW 6.9 mph - N/A   Partly Cloudy
6:53 PM 21.9 °F 15.7 °F 18.0 °F 85% 30.15 in 10.0 mi SSW 4.6 mph - N/A   Clear
7:53 PM 19.9 °F 13.4 °F 17.1 °F 89% 30.15 in 10.0 mi South 4.6 mph - N/A   Clear
8:53 PM 19.9 °F 12.1 °F 17.1 °F 89% 30.14 in 10.0 mi South 5.8 mph - N/A   Clear
9:53 PM 19.0 °F 11.1 °F 16.0 °F 88% 30.12 in 10.0 mi South 5.8 mph - N/A   Clear
10:53 PM 18.0 °F 11.1 °F 15.1 °F 88% 30.11 in 9.0 mi South 4.6 mph - N/A   Clear
11:53 PM 19.0 °F 9.0 °F 15.1 °F 85% 30.10 in 9.0 mi South 8.1 mph - N/A   Clear